SCP
4 4 4 5 5 4 4 4 3 2 2 1 1 1 1 0 0 0 0 1 1 1 0 0 0 0 1 1 1 1 1 1 1 2 1 1 1 2 2 2 2 2 2
4 4 4 4 4 4 4 3 2 2 1 1 1 1 0 0 0 0 0 0 0 0 0 0 0 0 1 1 1 1 1 1 1 1 1 1 1 1 2 2 2 2 2
3 3 3 3 3 3 3 2 2 1 1 1 1 1 0 0 0 0 0 1 0 0 0 0 0 0 1 1 1 1 1 1 1 1 1 1 1 1 2 2 2 2 3
3 3 2 2 2 2 2 2 1 1 1 1 1 1 1 0 0 0 1 1 0 0 0 0 0 0 1 1 1 1 1 1 1 2 2 2 1 2 2 2 2 2 2
3 2 2 1 1 1 1 1 2 2 2 2 2 2 1 1 1 1 1 1 0 0 0 0 0 0 0 1 1 1 1 1 1 2 2 2 2 2 2 2 2 2 2
3 2 2 2 1 1 1 1 2 2 2 3 3 2 2 2 1 1 1 1 0 0 0 0 0 0 0 1 1 1 1 1 1 1 1 1 2 2 2 2 2 2 2
2 2 2 2 2 2 1 2 2 2 3 3 3 3 3 3 2 2 1 1 0 0 0 0 0 0 0 0 1 1 1 1 1 1 1 1 2 2 3 2 2 2 2
1 1 1 1 2 2 2 2 2 3 3 3 4 4 4 4 3 2 2 1 0 0 0 0 0 0 1 0 0 1 1 1 1 1 1 2 2 2 3 3 3 3 3
0 0 1 1 1 1 1 2 3 4 5 5 5 6 5 5 4 3 3 2 1 1 0 0 0 0 0 1 1 1 1 1 1 1 1 1 2 2 3 3 3 3 3
0 0 0 0 0 0 1 1 2 4 5 5 6 6 6 6 5 4 3 3 2 1 1 0 0 0 0 1 1 1 1 1 1 1 1 1 2 2 2 3 3 3 3
0 0 0 0 0 0 0 0 1 2 3 3 4 5 6 6 5 4 4 3 3 2 2 1 0 0 0 1 1 1 1 1 1 1 1 1 1 1 2 2 2 2 3
0 0 0 0 0 0 0 0 0 0 0 1 1 2 3 4 4 4 3 3 3 3 2 1 1 0 0 1 1 1 1 1 1 1 1 1 1 1 1 2 2 2 2
0 0 0 0 0 0 0 0 0 0 0 0 0 1 1 2 2 2 3 3 3 3 3 2 1 1 1 0 0 0 0 0 0 0 0 1 1 1 1 1 1 2 2
0 0 0 0 0 0 0 0 0 0 0 0 0 0 0 0 1 1 2 2 2 2 3 3 2 1 1 1 0 0 0 0 0 0 0 0 0 0 0 1 1 1 1
0 0 0 0 0 0 0 0 0 0 0 0 0 0 0 0 0 0 1 1 2 2 3 3 2 2 1 1 0 0 0 0 0 0 0 0 0 0 0 0 0 0 0
0 0 0 0 0 0 0 0 0 0 0 0 0 0 0 0 0 0 1 1 2 2 3 3 3 2 1 0 0 0 0 0 0 0 0 0 0 0 0 0 0 0 0
0 0 0 0 0 0 0 0 0 0 0 0 0 0 0 0 0 0 0 1 2 2 2 2 2 2 1 0 0 0 0 0 0 0 0 0 0 0 0 0 0 0 0
0 0 0 0 0 0 0 0 0 0 0 0 0 0 0 0 0 0 0 1 2 2 2 2 2 2 1 0 0 0 0 0 0 0 0 0 0 0 0 0 0 0 0
0 0 0 0 0 0 0 0 0 0 0 0 0 0 0 0 0 0 0 1 1 1 1 1 1 1 1 0 0 0 0 0 0 0 0 0 0 0 0 0 0 0 0
0 0 0 0 0 0 0 0 0 0 0 0 0 0 0 0 0 0 0 0 1 1 1 1 1 1 1 0 0 0 0 0 0 0 0 0 0 0 0 0 0 0 0
0 0 0 0 0 0 0 0 0 0 0 0 0 0 0 0 0 0 0 0 0 1 1 1 1 1 1 0 0 0 0 0 0 0 0 0 0 0 0 0 0 0 0
0 0 0 0 0 0 0 0 0 0 0 0 0 0 0 0 0 0 0 0 0 0 1 1 1 1 0 0 0 0 0 0 0 0 0 0 0 0 0 0 0 0 0
0 0 0 0 0 0 0 0 0 0 0 0 0 0 0 0 0 0 0 0 0 0 1 1 1 1 0 0 0 0 0 0 0 0 0 0 0 0 0 0 0 0 0
0 0 0 0 0 0 0 0 0 0 0 0 0 0 0 0 0 0 0 0 0 0 0 1 1 1 0 0 0 0 0 0 0 0 0 0 0 0 0 0 0 0 0
0 0 0 0 0 0 0 0 0 0 0 0 0 0 0 0 0 0 0 0 0 0 0 0 0 0 0 0 0 0 0 0 0 0 0 0 0 0 0 0 0 0 0
0 0 0 0 0 0 0 0 0 0 0 0 0 0 0 0 0 0 0 0 0 0 0 0 0 0 0 0 0 0 0 0 0 0 0 0 0 0 0 0 0 0 0
Wind_Speed
9 8 8 8 8 8 7 5 4 4 3 2 2 2 2 2 2 1 1 1 2 3 4 6 6 6 7 8 10 10 12 11 10 11 12 13 15 14 12 12 13 14 14
9 8 7 8 8 7 7 6 6 5 5 3 2 2 3 3 3 2 1 2 4 5 5 5 7 7 7 10 10 10 11 11 10 10 12 12 12 11 13 12 13 14 12
9 9 8 8 7 7 6 5 5 6 6 4 4 3 3 4 4 3 3 3 5 5 6 7 8 7 9 8 9 10 12 12 12 12 11 11 11 10 9 11 10 11 10
7 7 8 8 7 7 6 7 7 7 6 6 5 5 4 5 5 4 4 4 4 6 7 7 7 7 8 7 9 9 10 12 12 11 12 13 13 11 9 7 9 11 10
6 6 7 5 4 4 5 7 7 8 7 7 6 6 6 5 4 3 3 5 5 5 5 6 7 7 8 8 10 10 11 10 12 12 11 12 11 13 12 11 9 9 10
0 3 6 6 6 6 6 7 7 8 8 8 7 7 7 6 6 5 4 5 4 4 4 6 7 9 9 9 10 10 12 11 12 11 11 10 10 10 11 12 11 10 8
14 15 14 13 12 11 10 9 8 8 8 8 8 8 8 8 8 7 4 5 5 5 5 7 7 8 9 11 12 12 12 12 12 12 11 10 11 11 10 10 11 10 6
16 16 16 16 15 16 15 13 10 9 7 7 7 7 7 7 6 6 5 5 5 5 6 7 8 10 11 11 11 11 12 11 12 13 13 10 11 10 11 11 10 9 8
16 16 16 16 16 16 17 17 15 12 9 6 5 6 7 8 8 7 7 6 5 5 7 8 9 10 11 11 11 10 11 11 12 12 12 11 10 10 10 10 10 10 9
15 15 15 15 15 15 15 16 16 16 15 12 9 5 6 9 10 9 9 7 7 7 8 9 10 11 11 11 10 11 9 10 10 8 10 10 9 9 10 10 10 10 8
14 14 14 15 15 16 16 15 15 15 15 15 13 12 10 9 9 9 10 9 9 9 9 9 9 10 11 10 10 10 9 8 7 7 7 7 8 7 8 9 9 9 8
14 14 14 14 14 14 14 14 14 14 14 14 14 13 12 11 10 10 11 11 11 11 11 10 9 9 9 9 10 8 6 6 5 5 4 5 4 5 5 6 8 8 8
15 15 15 14 14 13 13 13 13 14 15 15 15 15 14 13 12 12 12 13 13 13 12 11 10 9 8 8 8 7 6 5 5 4 4 5 6 4 3 2 1 2 5
13 13 13 11 10 10 11 11 12 12 13 14 15 14 15 15 14 14 13 13 14 15 14 12 10 9 9 9 7 6 5 4 4 5 5 5 5 4 4 4 5 6 7
13 12 11 10 10 9 10 10 10 10 10 10 11 12 13 14 15 15 14 14 13 15 15 13 11 10 9 8 7 6 5 3 3 3 3 4 5 6 5 6 8 9 8
16 16 16 16 15 14 14 14 14 13 12 12 13 11 12 14 13 14 14 14 13 13 14 15 13 12 9 6 3 7 5 2 0 2 2 4 7 11 12 12 11 10 9
19 20 20 19 19 18 17 17 16 15 14 13 14 13 13 14 14 14 14 13 12 12 13 14 14 13 10 11 8 6 6 4 1 2 2 5 8 10 12 13 13 12 9
22 21 21 21 20 20 20 20 20 18 17 16 16 15 15 15 15 14 13 12 11 10 10 12 14 13 12 14 11 7 8 5 3 3 4 6 8 8 9 11 12 11 9
22 22 22 23 22 22 21 21 20 20 19 18 18 17 17 17 16 15 14 12 11 11 10 10 12 13 12 15 13 11 9 7 6 5 5 7 9 6 7 10 11 12 10
22 22 22 23 22 20 20 21 21 20 21 20 19 19 17 17 17 16 14 13 12 12 11 8 8 11 11 15 15 13 9 8 8 7 6 6 8 5 2 8 10 11 10
23 23 22 20 19 18 19 20 21 20 20 20 20 20 18 17 17 15 14 13 13 13 11 9 6 5 7 12 16 15 9 9 9 9 8 7 9 6 2 5 9 10 10
24 24 21 20 19 18 18 21 21 20 19 18 19 20 20 18 16 15 13 13 13 13 12 9 6 1 3 5 12 15 12 6 7 8 8 9 11 9 7 7 10 9 8
23 22 22 22 21 19 19 21 21 19 18 17 18 19 20 18 16 15 14 13 12 12 10 7 5 3 1 3 6 13 11 5 4 7 13 14 15 13 10 11 9 7 6
23 22 23 22 21 20 19 19 20 19 19 19 17 16 16 16 15 12 12 12 11 10 8 6 5 5 4 3 5 10 9 8 9 11 14 14 10 9 11 9 6 5 5
23 22 20 20 22 21 20 19 19 17 18 18 17 15 14 14 13 12 10 10 9 6 5 5 5 6 7 8 9 9 11 11 10 13 11 11 11 10 10 8 6 6 6
24 23 21 20 22 22 21 19 18 17 17 16 14 12 10 10 10 10 10 11 10 5 6 7 6 6 7 11 10 10 12 15 17 13 12 11 11 11 10 9 8 8 8
Wind_Direction
152 147 140 139 138 137 140 149 160 154 181 186 263 275 287 300 301 299 353 313 343 351 324 313 318 295 290 291 287 279 268 257 255 259 262 258 251 244 235 234 238 240 241
161 158 159 156 151 146 145 151 161 161 184 178 236 275 308 300 324 308 260 295 324 323 313 320 298 293 286 273 270 269 273 271 261 257 265 266 258 244 238 230 228 235 238
175 170 174 172 169 167 169 167 172 185 202 202 224 217 232 249 249 257 258 312 324 318 318 305 298 293 278 273 274 275 268 269 266 254 254 264 264 266 248 229 231 233 235
180 179 189 192 190 192 190 189 200 212 215 218 242 270 294 307 319 302 312 321 304 311 314 306 298 289 285 282 274 268 270 267 266 260 248 251 269 275 269 240 227 224 224
193 210 224 228 236 244 236 220 216 225 228 231 232 245 262 277 275 274 280 287 297 296 306 304 299 293 290 295 290 284 274 266 263 265 260 251 247 247 255 259 247 223 216
246 311 319 319 315 302 284 266 249 244 239 234 237 239 255 258 259 253 282 286 300 296 304 304 301 295 296 294 286 281 273 269 270 269 265 259 252 243 238 245 247 242 226
27 19 11 2 352 338 321 301 282 270 259 245 240 235 237 236 234 246 256 285 303 309 321 312 303 299 299 295 290 282 277 274 269 264 261 258 257 255 251 250 251 250 237
44 37 29 25 20 13 3 350 331 307 284 257 240 231 228 233 229 223 263 275 291 303 313 298 295 296 296 296 293 287 280 273 269 265 263 261 258 253 246 244 247 246 236
39 35 28 24 20 17 14 8 1 353 341 311 265 238 230 238 236 220 229 251 260 273 278 288 291 292 294 295 296 287 284 277 270 267 263 256 254 251 248 244 238 234 233
27 23 18 13 9 7 7 6 4 1 360 355 338 308 265 242 236 235 237 247 255 259 268 276 285 290 293 294 290 282 278 279 278 272 268 263 257 251 244 237 230 226 232
13 9 7 3 359 359 357 356 355 353 353 354 349 342 323 295 268 253 250 247 248 246 248 260 275 285 290 292 288 289 297 293 296 297 285 277 273 267 257 246 236 224 216
357 356 356 353 351 351 349 348 346 344 341 339 336 337 333 324 310 292 277 262 252 247 244 250 264 275 280 284 285 292 301 300 306 314 322 325 312 300 284 261 239 225 208
341 339 341 341 341 341 339 338 337 338 335 332 327 326 325 326 325 319 303 280 262 251 246 243 252 260 266 272 277 288 293 292 298 308 322 334 341 354 8 4 166 170 155
316 318 320 323 324 322 321 322 324 325 322 322 319 318 319 320 320 320 314 297 275 257 245 239 240 242 247 255 261 273 282 292 307 315 319 329 345 19 68 74 89 95 101
297 293 289 286 281 277 275 274 276 279 282 288 293 299 304 308 311 312 310 305 290 269 252 239 230 226 231 237 240 251 253 276 313 330 337 17 40 56 87 102 102 101 99
294 295 293 290 285 279 274 270 263 257 251 261 269 272 280 287 291 294 296 299 298 284 262 243 229 219 219 164 205 265 237 240 309 38 53 105 107 95 89 95 99 110 121
305 307 307 307 306 301 297 292 285 279 274 271 275 272 270 276 279 284 292 299 302 298 276 252 235 222 202 166 196 238 248 222 148 87 64 87 104 122 116 106 100 87 79
313 311 308 306 304 302 301 300 296 289 283 280 280 277 275 278 279 280 285 292 297 298 290 268 246 227 197 176 191 209 231 220 183 144 119 110 117 115 123 123 109 92 68
309 307 304 303 303 302 301 299 295 290 283 280 280 278 276 277 275 274 277 283 289 291 287 282 263 236 199 177 184 202 214 204 190 166 143 132 118 107 122 124 117 105 91
308 306 305 303 301 301 301 299 296 293 290 289 289 283 277 274 271 269 272 275 279 281 279 275 270 252 217 180 182 201 213 189 177 157 135 99 116 124 151 143 132 122 117
306 306 304 302 302 302 300 294 292 291 291 291 291 286 279 273 266 263 262 265 268 274 278 272 263 263 250 183 183 199 220 187 185 170 161 126 120 119 109 156 140 133 132
307 307 305 304 303 301 296 291 289 291 291 290 289 285 279 272 267 263 257 255 260 264 266 264 248 228 287 232 193 196 224 242 188 170 144 123 125 114 107 112 118 134 151
306 306 306 306 304 300 295 289 288 287 282 280 282 281 276 269 265 264 260 251 245 251 258 255 236 186 170 271 213 194 204 227 183 125 110 124 127 120 109 116 134 164 161
305 305 306 305 303 298 291 284 284 283 279 276 273 271 271 267 260 254 251 249 247 249 254 253 231 189 159 214 223 190 177 150 129 118 119 128 134 120 117 142 172 184 153
305 304 305 303 299 296 290 286 286 282 277 274 270 262 256 260 261 254 249 255 255 259 264 258 222 192 185 193 212 192 172 166 148 143 148 151 150 150 157 164 164 152 148
305 307 308 303 298 295 291 290 288 283 275 270 264 259 250 243 248 252 246 225 231 183 198 229 224 206 188 168 179 191 165 151 151 159 160 161 161 160 159 157 156 158 156